When you browse on this site, cookies collect data to enhance your experience and personalize the content and advertising you see.
Visit our Privacy Policy to learn more. By continuing to use the site, you agree to this use of cookies and data.
  • Em Portugal
  • Lista de países
  • Para 7 dias
  • Temperatura da água
  • Mapas de satélite
  • Mapa do tempo
  • Widgets de tempo
  • user-avatar
    Iniciar Sessão

    Previsão horária em Chervlennye Buruny

    Hoje, 27 Junho, Quinta-feira

    Tempo Temperatura Precipitação Vento Pressão Humidade
    00:00 +27°C° 0.1 mm 4 m/s 756 mmHg 66%
    01:00 +27°C° 0 mm 4 m/s 755 mmHg 68%
    02:00 +27°C° 0 mm 3 m/s 755 mmHg 70%
    03:00 +27°C° 0 mm 2 m/s 755 mmHg 72%
    04:00 +27°C° 0 mm 2 m/s 755 mmHg 71%
    05:00 +27°C° 0 mm 1 m/s 755 mmHg 69%
    06:00 +27°C° 0 mm 1 m/s 755 mmHg 67%
    07:00 +28°C° 0 mm 1 m/s 755 mmHg 62%
    08:00 +29°C° 0 mm 1 m/s 754 mmHg 57%
    09:00 +31°C° 0 mm 2 m/s 754 mmHg 52%
    10:00 +32°C° 0 mm 2 m/s 754 mmHg 47%
    11:00 +34°C° 0 mm 2 m/s 754 mmHg 42%
    12:00 +35°C° 0 mm 2 m/s 753 mmHg 38%
    13:00 +35°C° 0 mm 2 m/s 753 mmHg 36%
    14:00 +36°C° 0 mm 2 m/s 753 mmHg 34%
    15:00 +36°C° 0 mm 2 m/s 752 mmHg 33%
    16:00 +36°C° 0 mm 3 m/s 752 mmHg 34%
    17:00 +36°C° 0 mm 4 m/s 752 mmHg 35%
    18:00 +35°C° 0 mm 5 m/s 751 mmHg 36%
    19:00 +34°C° 0 mm 5 m/s 751 mmHg 38%
    20:00 +32°C° 0 mm 5 m/s 751 mmHg 41%
    21:00 +30°C° 0 mm 6 m/s 751 mmHg 43%
    22:00 +29°C° 0 mm 5 m/s 751 mmHg 45%
    23:00 +28°C° 0 mm 5 m/s 750 mmHg 46%

    Amanhã, 28 Junho, Sexta-feira

    Tempo Temperatura Precipitação Vento Pressão Humidade
    00:00 +28°C° 0 mm 4 m/s 750 mmHg 48%
    01:00 +27°C° 0 mm 4 m/s 750 mmHg 50%
    02:00 +27°C° 0 mm 3 m/s 750 mmHg 53%
    03:00 +26°C° 0 mm 3 m/s 749 mmHg 55%
    04:00 +26°C° 0 mm 3 m/s 749 mmHg 57%
    05:00 +26°C° 0 mm 3 m/s 749 mmHg 59%
    06:00 +26°C° 0 mm 2 m/s 749 mmHg 61%
    07:00 +28°C° 0.2 mm 2 m/s 749 mmHg 56%
    08:00 +29°C° 0.2 mm 2 m/s 748 mmHg 52%
    09:00 +31°C° 0.2 mm 1 m/s 748 mmHg 47%
    10:00 +32°C° 0.1 mm 1 m/s 748 mmHg 43%
    11:00 +33°C° 0.1 mm 1 m/s 747 mmHg 39%
    12:00 +35°C° 0.1 mm 1 m/s 747 mmHg 34%
    13:00 +36°C° 0 mm 1 m/s 747 mmHg 33%
    14:00 +34°C° 0 mm 0 m/s 746 mmHg 31%
    15:00 +35°C° 0 mm 0 m/s 746 mmHg 29%
    16:00 +37°C° 0 mm 1 m/s 746 mmHg 30%
    17:00 +37°C° 0 mm 2 m/s 745 mmHg 30%
    18:00 +37°C° 0 mm 3 m/s 745 mmHg 31%
    19:00 +35°C° 1.2 mm 4 m/s 746 mmHg 40%
    20:00 +32°C° 1.2 mm 5 m/s 746 mmHg 50%
    21:00 +28°C° 1.2 mm 6 m/s 747 mmHg 59%
    22:00 +27°C° 1.1 mm 7 m/s 747 mmHg 66%
    23:00 +26°C° 1.1 mm 8 m/s 747 mmHg 74%

    Depois de amanhã, 29 Junho, Sábado

    Tempo Temperatura Precipitação Vento Pressão Humidade
    00:00 +24°C° 1.1 mm 9 m/s 747 mmHg 81%
    01:00 +24°C° 2.5 mm 7 m/s 747 mmHg 82%
    02:00 +23°C° 2.5 mm 6 m/s 747 mmHg 83%
    03:00 +23°C° 2.5 mm 4 m/s 747 mmHg 83%
    04:00 +23°C° 0.2 mm 4 m/s 748 mmHg 81%
    05:00 +23°C° 0.2 mm 4 m/s 748 mmHg 79%
    06:00 +25°C° 0.2 mm 4 m/s 748 mmHg 77%
    07:00 +25°C° 0.4 mm 4 m/s 748 mmHg 71%
    08:00 +26°C° 0.4 mm 4 m/s 748 mmHg 66%
    09:00 +27°C° 0.4 mm 5 m/s 748 mmHg 60%
    10:00 +27°C° 0.2 mm 5 m/s 748 mmHg 60%
    11:00 +27°C° 0.2 mm 5 m/s 747 mmHg 60%
    12:00 +27°C° 0.2 mm 5 m/s 747 mmHg 59%
    13:00 +24°C° 0.7 mm 6 m/s 748 mmHg 67%
    14:00 +23°C° 0.7 mm 7 m/s 748 mmHg 74%
    15:00 +21°C° 0.7 mm 7 m/s 748 mmHg 81%
    16:00 +21°C° 1 mm 7 m/s 748 mmHg 82%
    17:00 +21°C° 1 mm 6 m/s 749 mmHg 84%
    18:00 +21°C° 1 mm 6 m/s 749 mmHg 85%
    19:00 +21°C° 0.6 mm 5 m/s 749 mmHg 83%
    20:00 +21°C° 0.6 mm 4 m/s 750 mmHg 81%
    21:00 +21°C° 0.6 mm 4 m/s 750 mmHg 79%
    22:00 +20°C° 0 mm 4 m/s 750 mmHg 79%
    23:00 +20°C° 0 mm 5 m/s 750 mmHg 78%

    30 Junho, Domingo

    Tempo Temperatura Precipitação Vento Pressão Humidade
    00:00 +20°C° 0 mm 6 m/s 750 mmHg 78%
    01:00 +19°C° 0 mm 6 m/s 750 mmHg 77%
    02:00 +19°C° 0 mm 6 m/s 751 mmHg 77%
    03:00 +18°C° 0 mm 7 m/s 751 mmHg 76%
    04:00 +18°C° 0 mm 7 m/s 751 mmHg 76%
    05:00 +19°C° 0 mm 6 m/s 751 mmHg 75%
    06:00 +19°C° 0 mm 6 m/s 751 mmHg 75%
    07:00 +20°C° 0 mm 6 m/s 751 mmHg 67%
    08:00 +21°C° 0 mm 5 m/s 751 mmHg 60%
    09:00 +23°C° 0 mm 5 m/s 752 mmHg 53%
    10:00 +25°C° 0 mm 5 m/s 752 mmHg 50%
    11:00 +25°C° 0 mm 5 m/s 751 mmHg 47%
    12:00 +26°C° 0 mm 5 m/s 751 mmHg 43%
    13:00 +26°C° 0 mm 5 m/s 751 mmHg 41%
    14:00 +27°C° 0 mm 4 m/s 751 mmHg 38%
    15:00 +27°C° 0 mm 4 m/s 751 mmHg 35%
    16:00 +24°C° 0.1 mm 6 m/s 751 mmHg 41%
    17:00 +23°C° 0.1 mm 8 m/s 751 mmHg 46%
    18:00 +21°C° 0.1 mm 10 m/s 752 mmHg 51%
    19:00 +20°C° 0.6 mm 8 m/s 752 mmHg 57%
    20:00 +18°C° 0.6 mm 7 m/s 753 mmHg 63%
    21:00 +17°C° 0.6 mm 6 m/s 753 mmHg 69%
    22:00 +16°C° 0.3 mm 6 m/s 753 mmHg 70%
    23:00 +16°C° 0.3 mm 6 m/s 754 mmHg 71%

    1 Julho, Segunda-feira

    Tempo Temperatura Precipitação Vento Pressão Humidade
    00:00 +16°C° 0.3 mm 5 m/s 754 mmHg 72%
    01:00 +16°C° 0.2 mm 5 m/s 754 mmHg 71%
    02:00 +16°C° 0.2 mm 5 m/s 754 mmHg 71%
    03:00 +17°C° 0.2 mm 4 m/s 754 mmHg 71%
    04:00 +17°C° 0 mm 4 m/s 754 mmHg 69%
    05:00 +17°C° 0 mm 4 m/s 755 mmHg 68%
    06:00 +17°C° 0 mm 4 m/s 755 mmHg 67%
    07:00 +18°C° 0 mm 4 m/s 755 mmHg 61%
    08:00 +20°C° 0 mm 4 m/s 754 mmHg 54%
    09:00 +21°C° 0 mm 4 m/s 754 mmHg 48%
    10:00 +22°C° 0 mm 5 m/s 754 mmHg 45%
    11:00 +23°C° 0 mm 5 m/s 754 mmHg 42%
    12:00 +23°C° 0 mm 5 m/s 754 mmHg 39%
    13:00 +23°C° 0 mm 5 m/s 753 mmHg 38%
    14:00 +25°C° 0 mm 4 m/s 753 mmHg 37%
    15:00 +25°C° 0 mm 4 m/s 753 mmHg 36%
    16:00 +25°C° 0 mm 4 m/s 753 mmHg 37%
    17:00 +23°C° 0 mm 5 m/s 754 mmHg 37%
    18:00 +23°C° 0 mm 5 m/s 754 mmHg 37%
    19:00 +22°C° 0 mm 5 m/s 754 mmHg 39%
    20:00 +22°C° 0 mm 4 m/s 755 mmHg 41%
    21:00 +21°C° 0 mm 4 m/s 755 mmHg 43%
    22:00 +20°C° 0 mm 5 m/s 755 mmHg 47%
    23:00 +19°C° 0 mm 6 m/s 755 mmHg 51%

    2 Julho, Terça-feira

    Tempo Temperatura Precipitação Vento Pressão Humidade
    00:00 +19°C° 0 mm 6 m/s 755 mmHg 55%
    01:00 +17°C° 0 mm 7 m/s 755 mmHg 57%
    02:00 +17°C° 0 mm 7 m/s 755 mmHg 59%
    03:00 +16°C° 0 mm 8 m/s 755 mmHg 60%
    04:00 +17°C° 0 mm 8 m/s 755 mmHg 61%
    05:00 +17°C° 0 mm 8 m/s 755 mmHg 62%
    06:00 +17°C° 0 mm 8 m/s 755 mmHg 63%
    07:00 +20°C° 0 mm 8 m/s 754 mmHg 58%
    08:00 +21°C° 0 mm 9 m/s 754 mmHg 54%
    09:00 +23°C° 0 mm 9 m/s 754 mmHg 49%
    10:00 +24°C° 0.2 mm 10 m/s 754 mmHg 49%
    11:00 +26°C° 0.2 mm 11 m/s 754 mmHg 50%
    12:00 +26°C° 0.2 mm 11 m/s 754 mmHg 50%
    13:00 +27°C° 0.2 mm 10 m/s 754 mmHg 49%
    14:00 +27°C° 0.2 mm 9 m/s 753 mmHg 48%
    15:00 +28°C° 0.2 mm 8 m/s 753 mmHg 47%
    16:00 +28°C° 0.5 mm 8 m/s 753 mmHg 50%
    17:00 +28°C° 0.5 mm 7 m/s 753 mmHg 52%
    18:00 +28°C° 0.5 mm 7 m/s 753 mmHg 55%
    19:00 +27°C° 0.1 mm 7 m/s 753 mmHg 58%
    20:00 +26°C° 0.1 mm 6 m/s 753 mmHg 61%
    21:00 +24°C° 0.1 mm 6 m/s 753 mmHg 64%
    22:00 +24°C° 0.1 mm 6 m/s 753 mmHg 65%
    23:00 +23°C° 0.1 mm 6 m/s 753 mmHg 66%
    Mostrar mais